KB3HLL Weather Reports


time (UTC)temp
F
wind
direction
speed
knots
gust
knots
rain 1hr
in
rain 24hr
in
rain mn
in
humidity
%
barometer
mb
20260506002619 66 237 1.7 3.5 0.00 0.00 0.09 68 1010.7
20260506002117 66 260 2.6 3.5 0.00 0.00 0.09 68 1010.7
20260506001617 66 259 0.9 1.7 0.00 0.00 0.09 68 1010.7
20260506001117 66 259 0.0 0.9 0.00 0.00 0.09 68 1010.6
20260506000617 66 224 1.7 1.7 0.00 0.00 0.09 68 1010.6
20260506000118 67 252 1.7 1.7 0.00 0.00 0.09 67 1010.6
20260505235620 67 263 0.9 1.7 0.00 0.00 0.09 67 1010.5
20260505235118 67 290 1.7 2.6 0.00 0.00 0.09 67 1010.4
20260505234617 67 291 2.6 4.3 0.00 0.00 0.09 67 1010.3
20260505234117 67 305 2.6 4.3 0.00 0.00 0.09 66 1010.2
20260505233618 67 287 3.5 5.2 0.00 0.00 0.09 67 1010.3
20260505233118 67 294 1.7 3.5 0.00 0.00 0.09 67 1010.3
20260505232617 67 310 2.6 4.3 0.00 0.00 0.09 66 1010.2
20260505232118 67 304 3.5 6.1 0.00 0.00 0.09 66 1010.2
20260505231617 67 301 0.9 1.7 0.00 0.00 0.09 66 1010.2
20260505231118 67 316 2.6 4.3 0.00 0.00 0.09 65 1010.2
20260505230617 67 321 2.6 5.2 0.00 0.00 0.09 65 1010.2
20260505230120 67 329 2.6 4.3 0.00 0.00 0.09 65 1010.1
20260505225617 67 320 2.6 4.3 0.00 0.00 0.09 65 1010.1
20260505225118 68 311 2.6 7.0 0.00 0.00 0.09 65 1010.2
20260505224618 68 318 2.6 6.1 0.00 0.00 0.09 64 1010.3
20260505224118 68 316 1.7 3.5 0.00 0.00 0.09 63 1010.4
20260505223618 68 305 2.6 6.1 0.00 0.00 0.09 63 1010.4
20260505223117 68 298 3.5 7.0 0.00 0.00 0.09 63 1010.4
20260505222618 67 282 2.6 3.5 0.00 0.00 0.09 64 1010.4
20260505222117 67 289 2.6 4.3 0.00 0.00 0.09 63 1010.5
20260505221617 67 288 1.7 7.0 0.00 0.00 0.09 64 1010.5
20260505221118 67 282 3.5 5.2 0.00 0.00 0.09 64 1010.5
20260505220618 67 308 2.6 4.3 0.00 0.00 0.09 65 1010.5
20260505220118 68 272 2.6 3.5 0.00 0.00 0.09 64 1010.6
20260505215618 68 284 1.7 3.5 0.00 0.00 0.09 65 1010.6
20260505215117 69 275 4.3 8.7 0.00 0.00 0.09 65 1010.4
20260505214620 70 310 1.7 5.2 0.00 0.00 0.09 60 1010.4
20260505214117 71 299 2.6 3.5 0.00 0.00 0.09 57 1010.3
20260505213617 71 296 2.6 6.1 0.00 0.00 0.09 56 1010.2
20260505213119 71 45 1.7 1.7 0.00 0.00 0.09 56 1010.2
20260505212620 71 285 1.7 3.5 0.00 0.00 0.09 55 1010.0
20260505212118 71 278 0.0 0.0 0.00 0.00 0.09 56 1010.0
20260505211618 71 251 0.0 0.9 0.00 0.00 0.09 56 1009.9
20260505211120 71 272 2.6 3.5 0.00 0.00 0.09 55 1009.9
20260505210618 72 298 0.9 1.7 0.00 0.00 0.09 55 1010.0
20260505210117 72 290 1.7 3.5 0.00 0.00 0.09 55 1010.0
20260505205619 72 255 0.9 0.9 0.00 0.00 0.09 54 1010.0
20260505205118 71 282 1.7 2.6 0.00 0.00 0.09 54 1009.9
20260505204619 71 244 1.7 2.6 0.00 0.00 0.09 54 1009.9
20260505204120 71 289 1.7 4.3 0.00 0.00 0.09 54 1010.0
20260505203617 71 239 3.5 4.3 0.00 0.00 0.09 54 1010.0
20260505203119 71 243 1.7 3.5 0.00 0.00 0.09 54 1010.0
20260505202620 71 271 2.6 6.1 0.00 0.00 0.09 54 1010.1
20260505202119 72 258 4.3 9.6 0.00 0.00 0.09 54 1010.2
20260505201620 72 239 3.5 5.2 0.00 0.00 0.09 50 1010.1
20260505201119 73 226 1.7 2.6 0.00 0.00 0.09 50 1009.9
20260505200619 73 265 2.6 5.2 0.00 0.00 0.09 49 1009.9
20260505200119 73 233 4.3 7.0 0.00 0.00 0.09 49 1009.8
20260505195619 73 236 2.6 5.2 0.00 0.00 0.09 49 1010.0
20260505195120 73 201 4.3 7.8 0.00 0.00 0.09 48 1009.8
20260505194618 73 246 3.5 6.1 0.00 0.00 0.09 48 1009.9
20260505194120 73 234 3.5 6.1 0.00 0.00 0.09 48 1009.9
20260505193620 73 258 5.2 7.8 0.00 0.00 0.09 47 1009.9
20260505193119 74 236 2.6 5.2 0.00 0.00 0.09 47 1009.8
20260505192620 74 208 3.5 5.2 0.00 0.00 0.09 47 1009.8
20260505192117 74 253 3.5 6.1 0.00 0.00 0.09 47 1009.8
20260505191626 75 252 2.6 7.8 0.00 0.00 0.09 46 1009.8
20260505191117 74 182 2.6 6.1 0.00 0.00 0.09 46 1009.8
20260505190619 74 196 5.2 9.6 0.00 0.00 0.09 47 1009.8
20260505190119 73 210 6.1 11.3 0.00 0.00 0.09 47 1009.5
20260505185621 73 189 6.1 12.2 0.00 0.00 0.09 48 1009.5
20260505185120 73 194 6.1 11.3 0.00 0.00 0.09 49 1009.8
20260505184620 73 227 3.5 7.0 0.00 0.00 0.09 48 1009.8
20260505184120 73 210 6.1 8.7 0.00 0.00 0.09 50 1009.9
20260505183620 73 200 4.3 7.0 0.00 0.00 0.09 50 1009.9
20260505183120 73 206 2.6 5.2 0.00 0.00 0.09 51 1010.0
20260505182620 72 235 3.5 6.1 0.00 0.00 0.09 51 1010.0
20260505182118 72 203 4.3 7.8 0.00 0.00 0.09 53 1010.1
20260505181620 72 185 4.3 9.6 0.00 0.00 0.09 53 1010.0
20260505181122 73 216 6.1 9.6 0.00 0.00 0.09 53 1010.2
20260505180621 73 202 5.2 10.4 0.00 0.00 0.09 54 1010.3
20260505180120 73 201 4.3 9.6 0.00 0.00 0.09 54 1010.3
20260505175620 74 197 4.3 9.6 0.00 0.00 0.09 53 1010.1
20260505174637 73 201 3.5 8.7 0.00 0.00 0.09 53 1010.3
20260505174120 73 204 4.3 7.8 0.00 0.00 0.09 54 1010.4
20260505173619 73 198 4.3 9.6 0.00 0.00 0.09 54 1010.5
20260505173119 73 191 4.3 7.0 0.00 0.00 0.09 54 1010.7
20260505172620 73 202 3.5 5.2 0.00 0.00 0.09 54 1010.5
20260505172120 73 248 3.5 7.8 0.00 0.00 0.09 55 1010.5
20260505171619 74 223 3.5 8.7 0.00 0.00 0.09 54 1010.6
20260505171120 73 236 1.7 4.3 0.00 0.00 0.09 54 1010.6
20260505170620 72 220 2.6 3.5 0.00 0.00 0.09 55 1010.7
20260505170120 71 270 1.7 1.7 0.00 0.00 0.09 57 1010.7
20260505165620 71 197 6.1 9.6 0.00 0.00 0.09 56 1010.6
20260505165121 73 237 4.3 7.0 0.00 0.00 0.09 56 1010.6
20260505164620 73 250 1.7 2.6 0.00 0.00 0.09 57 1010.7
20260505164121 72 269 3.5 4.3 0.00 0.00 0.09 57 1010.7
20260505163620 71 228 3.5 5.2 0.00 0.00 0.09 58 1010.7
20260505163118 70 223 3.5 5.2 0.00 0.00 0.09 60 1010.9
20260505162620 70 229 3.5 7.0 0.00 0.00 0.09 61 1010.8
20260505162120 70 318 1.7 1.7 0.00 0.00 0.09 62 1010.9
20260505161620 69 247 1.7 1.7 0.00 0.00 0.09 62 1011.2
20260505161120 69 230 1.7 2.6 0.00 0.00 0.09 62 1011.2
20260505160617 70 257 3.5 7.0 0.00 0.00 0.09 61 1011.2
20260505160119 70 243 3.5 5.2 0.00 0.00 0.09 62 1011.3
20260505153119 70 213 4.3 6.1 0.00 0.00 0.09 62 1011.6
20260505152622 70 229 2.6 4.3 0.00 0.00 0.09 62 1011.4
20260505152120 70 207 3.5 4.3 0.00 0.00 0.09 62 1011.4
20260505151617 69 224 2.6 3.5 0.00 0.00 0.09 63 1011.3
20260505151120 69 204 2.6 5.2 0.00 0.00 0.09 64 1011.3
20260505150621 69 194 3.5 4.3 0.00 0.00 0.09 64 1011.4
20260505150120 68 175 3.5 6.1 0.00 0.00 0.09 67 1011.4
20260505140620 63 182 2.6 5.2 0.00 0.00 0.09 78 1011.3
20260505140119 62 144 3.5 4.3 0.00 0.00 0.09 79 1011.3
20260505130120 62 185 2.6 3.5 0.06 0.00 0.10 86 1011.6
20260505124618 62 258 3.5 5.2 0.06 0.00 0.10 77 1011.3
20260505124119 61 251 3.5 5.2 0.06 0.00 0.10 78 1011.4
20260505123619 60 246 3.5 7.0 0.06 0.00 0.09 80 1011.4
20260505123119 60 238 2.6 3.5 0.05 0.00 0.09 81 1011.7
20260505122619 59 249 1.7 4.3 0.04 0.00 0.09 82 1011.6
20260505122120 58 229 4.3 8.7 0.04 0.00 0.09 83 1011.6
20260505121619 58 217 4.3 7.8 0.03 0.00 0.09 84 1011.8
20260505121120 58 217 4.3 7.8 0.02 0.00 0.09 86 1011.8
20260505120620 58 196 7.0 13.9 0.02 0.00 0.08 85 1012.0
20260505120126 59 208 3.5 6.1 0.00 0.00 0.07 83 1012.1
20260505115334 61 248 2.6 4.3 0.00 0.00 0.06 81 1011.8
20260505114618 61 222 4.3 6.1 0.00 0.00 0.04 70 1011.6
20260505114118 61 218 3.5 7.8 0.00 0.00 0.04 71 1011.6
20260505113620 61 207 3.5 5.2 0.00 0.00 0.04 72 1011.4
20260505113117 61 216 1.7 3.5 0.00 0.00 0.04 70 1011.2
20260505112620 61 238 3.5 6.1 0.00 0.00 0.04 70 1011.1
20260505112121 61 223 3.5 7.0 0.00 0.00 0.04 71 1011.1
20260505111618 60 194 5.2 6.1 0.00 0.00 0.04 72 1011.1
20260505111119 60 215 3.5 6.1 0.00 0.00 0.04 72 1011.0
20260505110620 60 210 2.6 3.5 0.00 0.00 0.04 72 1011.0
20260505110121 60 223 2.6 5.2 0.00 0.00 0.05 74 1011.1
20260505102119 59 184 3.5 6.1 0.00 0.00 0.02 76 1010.9
20260505101619 60 232 0.9 1.7 0.02 0.00 0.02 76 1011.0
20260505101117 60 197 1.7 3.5 0.02 0.00 0.02 76 1011.0
20260505100619 60 242 1.7 3.5 0.02 0.00 0.02 76 1011.1
20260505100119 60 254 0.9 1.7 0.02 0.00 0.02 74 1011.1
20260505095617 60 241 2.6 5.2 0.02 0.00 0.02 74 1011.0
20260505095119 59 229 4.3 6.1 0.02 0.00 0.02 76 1011.0
20260505094619 59 222 3.5 7.0 0.02 0.00 0.02 75 1011.0
20260505094119 58 216 2.6 5.2 0.02 0.00 0.02 79 1010.9
20260505093617 57 189 5.2 7.0 0.02 0.00 0.02 78 1010.8
20260505093117 57 159 3.5 5.2 0.02 0.00 0.02 81 1010.7
20260505092620 57 186 4.3 7.0 0.08 0.00 0.02 81 1010.6
20260505092118 56 182 5.2 6.1 0.08 0.00 0.08 84 1010.7
20260505091619 56 162 5.2 7.8 0.08 0.00 0.08 85 1010.6
20260505091120 57 147 7.0 8.7 0.08 0.00 0.08 86 1010.4
20260505090619 58 160 4.3 6.1 0.00 0.00 0.00 75 1010.5
20260505090119 58 151 3.5 7.0 0.00 0.00 0.00 75 1010.4
20260505085620 59 179 4.3 6.1 0.00 0.00 0.00 74 1010.4
20260505085118 59 160 4.3 6.1 0.00 0.00 0.00 74 1010.5
20260505084617 59 144 3.5 6.1 0.00 0.00 0.00 74 1010.5
20260505084118 59 156 5.2 7.0 0.00 0.00 0.00 74 1010.5
20260505083617 59 168 5.2 6.1 0.00 0.00 0.00 74 1010.5
20260505083119 59 185 5.2 7.8 0.00 0.00 0.00 74 1010.5
20260505082619 59 158 3.5 5.2 0.00 0.00 0.00 74 1010.5
20260505082119 59 157 2.6 3.5 0.00 0.00 0.00 74 1010.5
20260505081617 59 157 3.5 5.2 0.00 0.00 0.00 73 1010.5
20260505081120 59 172 4.3 7.0 0.00 0.00 0.00 73 1010.5
20260505080618 59 161 4.3 6.1 0.00 0.00 0.00 72 1010.5
20260505080118 59 153 3.5 5.2 0.00 0.00 0.00 72 1010.5
20260505075617 59 140 5.2 7.8 0.00 0.00 0.00 72 1010.4
20260505075119 59 132 5.2 7.8 0.00 0.00 0.00 73 1010.4
20260505074621 59 139 2.6 3.5 0.00 0.00 0.00 73 1010.4
20260505074119 59 132 4.3 5.2 0.00 0.00 0.00 73 1010.3
20260505073620 59 138 3.5 5.2 0.00 0.00 0.00 72 1010.4
20260505073117 59 150 3.5 4.3 0.00 0.00 0.00 72 1010.3
20260505072617 58 146 5.2 7.8 0.00 0.00 0.00 73 1010.2
20260505072119 59 134 2.6 3.5 0.00 0.00 0.00 73 1010.3
20260505071618 60 131 4.3 5.2 0.00 0.00 0.00 71 1010.3
20260505071120 60 157 2.6 4.3 0.00 0.00 0.00 71 1010.3
20260505070619 60 164 3.5 6.1 0.00 0.00 0.00 71 1010.3
20260505070120 60 188 4.3 7.0 0.00 0.00 0.00 71 1010.3
20260505065617 60 189 2.6 5.2 0.00 0.00 0.00 74 1010.3
20260505065119 61 256 1.7 2.6 0.00 0.00 0.00 76 1010.4
20260505064619 61 218 3.5 4.3 0.00 0.00 0.00 70 1010.4
20260505064117 61 194 5.2 7.0 0.00 0.00 0.00 69 1010.4
20260505063617 61 184 3.5 4.3 0.00 0.00 0.00 69 1010.4
20260505063117 60 173 4.3 6.1 0.00 0.00 0.00 70 1010.4
20260505062619 60 188 4.3 6.1 0.00 0.00 0.00 70 1010.4
20260505062117 60 183 3.5 6.1 0.00 0.00 0.00 69 1010.5
20260505061618 61 167 5.2 6.1 0.00 0.00 0.00 69 1010.5
20260505061117 62 186 4.3 7.0 0.00 0.00 0.00 69 1010.5
20260505060618 62 207 2.6 5.2 0.00 0.00 0.00 68 1010.5
20260505060121 62 208 4.3 6.1 0.00 0.00 0.00 68 1010.6
20260505055617 62 200 3.5 6.1 0.00 0.00 0.00 67 1010.6
20260505055117 62 216 2.6 5.2 0.00 0.00 0.00 67 1010.6
20260505054617 62 237 2.6 6.1 0.00 0.00 0.00 67 1010.7
20260505054118 62 227 2.6 4.3 0.00 0.00 0.00 67 1010.7
20260505053617 62 221 3.5 7.0 0.00 0.00 0.00 68 1010.7
20260505053117 62 223 1.7 2.6 0.00 0.00 0.00 67 1010.8
20260505052617 62 190 3.5 4.3 0.00 0.00 0.00 67 1010.8
20260505052118 62 163 3.5 7.8 0.00 0.00 0.00 67 1010.9
20260505051617 62 225 2.6 5.2 0.00 0.00 0.00 67 1010.9
20260505051117 62 239 3.5 5.2 0.00 0.00 0.00 66 1010.9
20260505050618 62 233 2.6 5.2 0.00 0.00 0.00 66 1010.9
20260505050117 62 190 3.5 7.0 0.00 0.00 0.00 66 1010.8
20260505041618 61 164 4.3 6.1 0.00 0.00 0.00 64 1010.8
20260505041117 61 175 2.6 5.2 0.00 0.00 0.00 64 1010.8
20260505040617 61 159 3.5 6.1 0.00 0.00 0.00 64 1010.7
20260505040117 61 198 2.6 4.3 0.00 0.00 0.00 64 1010.6
20260505035617 61 172 5.2 7.8 0.00 0.00 0.00 64 1010.6
20260505035118 61 165 4.3 5.2 0.00 0.00 0.00 64 1010.7
20260505034619 62 162 5.2 6.1 0.00 0.00 0.00 64 1010.6
20260505034127 62 159 3.5 5.2 0.00 0.00 0.00 63 1010.5
20260505033618 62 169 3.5 4.3 0.00 0.00 0.00 63 1010.5
20260505033118 62 170 4.3 7.0 0.00 0.00 0.00 63 1010.5
20260505032618 62 154 5.2 7.0 0.00 0.00 0.00 63 1010.4
20260505032118 62 163 4.3 6.1 0.00 0.00 0.00 63 1010.5
20260505031618 62 150 5.2 7.8 0.00 0.00 0.00 63 1010.4
20260505031118 62 154 4.3 6.1 0.00 0.00 0.00 62 1010.4
20260505030617 62 161 5.2 7.8 0.00 0.00 0.00 62 1010.6
20260505030120 62 156 5.2 7.0 0.00 0.00 0.00 62 1010.5
20260505025620 62 156 6.1 7.8 0.00 0.00 0.00 62 1010.5
20260505025119 62 156 6.1 7.8 0.00 0.00 0.00 62 1010.5
20260505024617 62 159 5.2 9.6 0.00 0.00 0.00 62 1010.5
20260505024117 62 160 5.2 7.8 0.00 0.00 0.00 62 1010.6
20260505023617 62 161 7.0 8.7 0.00 0.00 0.00 62 1010.6
20260505023120 62 153 7.0 7.8 0.00 0.00 0.00 62 1010.4
20260505022620 62 157 6.1 7.8 0.00 0.00 0.00 62 1010.5
20260505022119 62 151 6.1 7.8 0.00 0.00 0.00 61 1010.6
20260505021617 62 153 5.2 7.8 0.00 0.00 0.00 61 1010.6
20260505021119 62 148 5.2 7.8 0.00 0.00 0.00 61 1010.8
20260505020621 62 152 4.3 5.2 0.00 0.00 0.00 61 1010.9
20260505020118 62 159 6.1 7.8 0.00 0.00 0.00 61 1011.0
20260505015617 62 161 5.2 7.8 0.00 0.00 0.00 61 1011.0
20260505015117 62 161 6.1 7.8 0.00 0.00 0.00 62 1010.9
20260505014618 62 156 5.2 7.8 0.00 0.00 0.00 62 1010.8
20260505014117 62 150 6.1 7.8 0.00 0.00 0.00 62 1010.6
20260505013617 62 159 6.1 7.8 0.00 0.00 0.00 62 1010.7
20260505013117 63 148 6.1 7.8 0.00 0.00 0.00 61 1010.7
20260505012617 63 158 5.2 7.0 0.00 0.00 0.00 60 1010.7
20260505012117 63 157 4.3 7.0 0.00 0.00 0.00 60 1010.7
20260505011618 64 166 5.2 7.8 0.00 0.00 0.00 59 1010.7
20260505011117 64 173 7.0 8.7 0.00 0.00 0.00 59 1010.7
20260505010617 64 170 3.5 7.0 0.00 0.00 0.00 59 1010.6
20260505010119 64 173 3.5 6.1 0.00 0.00 0.00 59 1010.7
20260505005619 64 178 4.3 7.8 0.00 0.00 0.00 59 1010.6
20260505005119 63 178 3.5 5.2 0.00 0.00 0.00 59 1010.5
20260505004617 64 189 2.6 6.1 0.00 0.00 0.00 59 1010.5
20260505004119 64 166 3.5 5.2 0.00 0.00 0.00 59 1010.5
20260505003617 64 180 3.5 5.2 0.00 0.00 0.00 59 1010.4
20260505003117 64 191 6.1 8.7 0.00 0.00 0.00 58 1010.4